Cape Girardeau, MO

4:20 PM CST on December 12, 2019 (GMT -0600)
Cape Girardeau Regional

Weather History for KCGI - October, 2019

Change the Weather History Date:

Monday, October 28, 2019

  Actual Average Record
Temperature  
Mean Temperature 57 °F 54 °F  
Max Temperature 60 °F 66 °F 84 °F (1971)
Min Temperature 54 °F 42 °F 24 °F (1976)
Degree Days  
Heating Degree Days 8 11  
Month to date heating degree days 199 220  
Since 1 July heating degree days 199 269  
Cooling Degree Days 0 0  
Month to date cooling degree days 51 29  
Year to date cooling degree days 1775 1451  
Growing Degree Days 6 (Base 50)    
Moisture  
Dew Point 51 °F    
Average Humidity 83    
Maximum Humidity 93    
Minimum Humidity 72    
Precipitation  
Precipitation 0.00 in 0.12 in 0.97 in (1984)
Month to date precipitation 7.02 3.40  
Year to date precipitation 54.69 37.73  
Sea Level Pressure  
Sea Level Pressure 30.07 in    
Wind  
Wind Speed 5 mph (SSW)    
Max Wind Speed 15 mph    
Max Gust Speed 20 mph    
Visibility 10 miles    
Events      
T = Trace of Precipitation, MM = Missing Value Source: NWS Daily Summary

Daily Weather History Graph

Daily Weather History Graph

Search for Another Location

Airport or City:

Astronomy

Oct. 28, 2019 Rise Set
Actual Time 7:18 AM CDT 6:05 PM CDT
Civil Twilight 6:51 AM CDT 6:31 PM CDT
Nautical Twilight 6:21 AM CDT 7:02 PM CDT
Astronomical Twilight 5:50 AM CDT 7:32 PM CDT
Moon 7:40 AM CDT (10/28) 6:50 PM CDT (10/28)
Length of Visible Light 11h 40m
Length of Day
10h 46m
New Moon, 0% of the Moon is Illuminated
Oct 28
New Moon
Nov 4
First Quarter
Nov 12
Full
Nov 19
Last Quarter
Nov 26
New

Hourly Weather History & Observations

Time (CDT) Temp. Dew Point Humidity Pressure Visibility Wind Dir Wind Speed Gust Speed Precip Events Conditions
12:53 AM 55.0 °F 52.0 °F 89% 30.05 in 10.0 mi South 8.1 mph - N/A   Overcast
1:53 AM 54.0 °F 52.0 °F 93% 30.05 in 10.0 mi SW 10.4 mph - N/A   Overcast
2:53 AM 54.0 °F 52.0 °F 93% 30.05 in 10.0 mi SSW 8.1 mph - N/A   Overcast
3:53 AM 54.0 °F 52.0 °F 93% 30.05 in 5.0 mi SW 5.8 mph - N/A   Overcast
4:51 AM 53.6 °F 51.8 °F 94% 30.07 in 10.0 mi WSW 5.8 mph - N/A   Overcast
4:53 AM 54.0 °F 52.0 °F 93% 30.06 in 10.0 mi WSW 5.8 mph - N/A   Overcast
5:53 AM 54.0 °F 52.0 °F 93% 30.08 in 8.0 mi SW 3.5 mph - N/A   Overcast
6:53 AM 54.0 °F 52.0 °F 93% 30.09 in 10.0 mi Calm Calm - N/A   Overcast
7:53 AM 55.0 °F 52.0 °F 89% 30.09 in 10.0 mi Calm Calm - N/A   Overcast
8:53 AM 55.0 °F 52.0 °F 89% 30.10 in 10.0 mi Calm Calm - N/A   Overcast
9:53 AM 55.9 °F 52.0 °F 87% 30.10 in 10.0 mi Calm Calm - N/A   Overcast
10:53 AM 57.0 °F 52.0 °F 83% 30.10 in 10.0 mi South 4.6 mph - N/A   Overcast
11:53 AM 57.9 °F 52.0 °F 81% 30.09 in 10.0 mi South 6.9 mph - N/A   Overcast
12:53 PM 59.0 °F 51.1 °F 75% 30.07 in 10.0 mi South 5.8 mph - N/A   Overcast
1:53 PM 59.0 °F 51.1 °F 75% 30.06 in 10.0 mi South 5.8 mph - N/A   Overcast
3:53 PM 59.0 °F 50.0 °F 72% 30.04 in 10.0 mi SSW 5.8 mph - N/A   Overcast
4:53 PM 59.0 °F 51.1 °F 75% 30.04 in 10.0 mi South 4.6 mph - N/A   Overcast
5:53 PM 57.9 °F 51.1 °F 78% 30.05 in 10.0 mi SSW 5.8 mph - N/A   Overcast
6:53 PM 57.0 °F 50.0 °F 77% 30.04 in 10.0 mi SSE 4.6 mph - N/A   Overcast
7:53 PM 57.0 °F 50.0 °F 77% 30.05 in 10.0 mi South 5.8 mph - N/A   Overcast
8:53 PM 57.0 °F 50.0 °F 77% 30.04 in 10.0 mi South 8.1 mph - N/A   Overcast
9:53 PM 55.9 °F 51.1 °F 84% 30.07 in 10.0 mi SW 6.9 mph - N/A   Overcast
10:53 PM 55.9 °F 50.0 °F 80% 30.08 in 10.0 mi SW 8.1 mph - N/A   Overcast
11:53 PM 55.0 °F 51.1 °F 86% 30.07 in 10.0 mi SW 11.5 mph - N/A   Overcast